Presure
139 154 135 140 122 207 163 213 162 228 215 200 86 240 252 264 218 276 449 444 441 438 429 421 422 428 461 474 475 460 447 366 323 282 286 287 277 265
137 150 205 175 232 163 154 219 215 218 230 248 256 225 198 461 287 431 420 438 463 467 442 404 397 397 404 434 469 447 433 435 399 366 297 286 289 273
233 183 135 213 194 201 216 220 227 239 254 267 298 468 403 427 301 450 455 442 436 431 432 444 649 393 389 395 430 445 384 418 407 380 366 306 287 338
222 214 220 194 208 214 226 233 245 252 277 474 455 427 413 412 443 446 436 424 420 409 406 423 424 556 396 381 385 431 436 394 370 394 396 370 341 273
215 144 206 215 214 231 240 248 260 483 425 439 421 404 437 428 437 419 408 393 395 423 450 480 580 447 463 384 375 409 419 424 428 400 375 375 368 308
173 201 210 221 242 241 250 304 476 390 434 408 396 424 417 431 404 382 395 402 424 434 445 480 541 573 582 415 373 376 409 406 414 414 386 367 363 359
198 191 236 246 245 263 448 474 382 430 401 389 432 425 436 398 353 393 414 435 433 431 460 498 521 551 572 429 373 369 404 397 401 401 417 387 373 363
226 238 240 250 268 464 463 371 427 395 381 446 459 439 392 370 397 428 445 532 545 456 489 498 506 541 560 458 374 370 407 395 393 400 417 417 383 364
240 243 259 430 460 379 366 427 397 370 421 426 424 407 365 401 440 449 520 527 536 531 527 541 531 537 559 567 362 368 386 396 390 384 388 406 420 396
245 291 464 460 365 361 428 400 376 419 438 436 438 368 404 384 457 511 510 501 495 497 508 488 489 487 518 362 359 366 376 387 383 388 392 394 418 416
391 468 391 357 362 429 403 378 420 420 426 443 368 399 366 478 489 400 406 487 496 475 459 469 482 488 361 360 358 342 355 366 308 378 377 385 381 403
458 374 353 410 426 400 373 417 441 477 472 355 399 352 363 354 359 353 357 364 367 364 358 355 360 364 363 361 358 357 314 311 302 382 323 362 380 396
355 352 407 419 400 370 392 423 443 432 372 456 344 347 350 346 339 340 343 340 343 347 350 351 350 352 355 356 354 351 356 357 365 334 304 295 376 391
443 433 417 399 369 366 417 462 358 480 405 339 337 339 328 328 334 335 336 339 339 340 344 350 350 351 341 335 337 344 357 335 507 335 306 295 350 387
428 416 394 368 353 414 451 388 527 335 336 329 328 320 329 330 323 340 346 347 347 349 350 350 348 357 372 486 484 455 458 386 377 318 300 293 300 328
411 385 365 355 417 452 390 401 319 330 325 321 324 335 329 332 329 334 342 345 344 338 337 341 355 378 442 468 501 388 373 367 384 318 300 294 296 308
377 368 453 423 444 408 366 320 320 311 327 331 325 322 317 327 332 328 325 328 325 327 333 340 345 349 339 332 306 356 366 368 377 398 307 294 291 294
476 495 425 442 396 348 322 357 382 399 310 310 305 303 316 315 317 319 311 307 313 314 316 324 334 347 355 349 355 358 365 361 368 376 357 290 288 292
485 419 440 397 341 325 356 370 319 303 307 316 315 317 314 309 301 309 307 296 292 296 328 339 316 330 332 338 311 363 355 360 354 369 344 334 287 337
409 433 395 334 320 355 357 312 301 296 304 311 314 313 300 294 282 293 288 289 285 291 315 292 341 324 323 318 311 330 338 345 348 364 372 316 288 275
431 390 331 316 344 343 341 307 302 306 302 299 294 291 287 285 283 282 274 280 281 273 274 286 306 310 307 317 334 345 335 308 328 334 308 310 299 277
459 327 314 341 336 329 315 312 308 302 295 295 284 288 287 284 283 287 272 271 269 270 266 267 256 292 288 280 292 291 304 317 304 306 301 286 277 271
332 315 333 305 318 311 304 298 300 300 290 287 287 288 282 272 274 275 276 273 271 269 263 270 264 263 262 260 280 277 291 292 288 278 276 285 284 277
Wind_Speed
71 77 70 74 69 103 88 114 92 118 103 102 24 136 139 144 104 61 89 88 89 86 86 87 87 82 68 80 87 91 100 107 112 116 117 119 115 119
72 82 101 88 111 88 85 120 116 125 126 133 136 114 92 83 65 90 91 84 75 74 80 87 88 88 84 72 76 86 93 102 98 101 108 111 114 106
105 95 75 113 105 108 117 122 129 139 146 141 144 78 73 84 70 77 73 75 75 75 75 75 49 88 86 82 69 75 88 91 101 100 101 109 109 91
103 109 114 109 112 121 128 132 139 141 154 90 82 83 83 82 72 70 71 75 76 75 77 77 76 63 85 82 77 67 75 84 92 105 106 105 105 105
110 88 107 120 119 130 134 138 146 87 99 88 85 85 74 71 68 69 72 74 76 76 70 67 53 70 78 81 78 69 68 76 90 101 96 101 103 100
99 102 117 125 134 134 140 142 87 106 84 86 87 76 73 65 72 75 69 73 69 65 65 60 50 45 38 80 73 68 63 62 71 88 103 98 100 106
105 110 130 136 137 145 98 85 105 82 84 85 75 70 65 69 74 70 71 62 55 61 58 47 44 40 40 73 66 63 62 60 61 70 86 103 104 107
126 131 133 140 148 88 85 105 82 84 86 72 64 64 64 69 67 62 56 51 43 43 43 35 35 32 34 69 56 54 60 58 58 61 72 87 103 104
133 135 144 100 86 103 102 81 79 84 73 71 63 60 62 62 57 51 46 39 32 21 29 22 23 22 24 30 47 46 49 55 58 61 65 71 86 102
138 141 86 82 104 103 80 78 79 68 65 62 61 58 57 46 52 46 36 26 20 19 15 4 11 15 20 37 41 42 44 50 54 57 59 63 73 86
110 81 98 102 101 78 79 80 70 68 63 59 52 51 40 50 43 30 27 20 12 5 7 3 4 3 30 33 35 35 40 43 36 48 49 52 52 62
80 99 101 83 74 74 78 71 67 56 50 44 45 38 33 30 25 23 21 19 14 9 7 9 13 18 24 28 31 33 30 34 36 41 40 43 47 54
104 99 79 70 70 73 71 65 59 47 40 34 31 29 26 24 24 23 19 16 13 9 7 9 12 17 21 24 25 27 29 29 32 39 41 41 44 47
72 70 67 66 68 69 61 55 43 38 30 27 24 23 22 22 20 18 16 13 9 7 6 6 9 14 17 18 20 23 25 29 15 39 40 38 39 44
72 68 65 66 67 55 50 39 36 28 24 22 22 22 20 17 16 14 12 11 9 8 7 4 6 7 8 8 17 14 14 23 26 38 38 37 38 40
67 64 65 65 49 45 32 25 24 23 21 20 19 15 13 12 12 12 10 9 8 6 4 4 4 2 4 2 13 17 19 22 22 36 37 37 37 39
64 63 45 39 37 23 19 21 20 19 16 13 12 12 12 12 12 11 11 12 11 10 10 10 8 7 6 7 13 15 18 20 21 28 35 36 35 37
52 36 31 30 16 15 17 14 14 15 12 12 12 13 12 11 14 15 13 13 11 11 10 11 11 9 12 12 13 13 16 18 20 30 29 33 33 33
33 26 24 11 11 14 11 15 8 9 10 11 8 9 11 13 14 17 14 13 13 12 13 14 9 12 9 10 8 15 16 20 21 28 30 29 32 32
26 19 8 7 11 8 13 6 7 9 9 8 8 10 10 12 10 15 15 14 13 14 12 12 15 12 12 9 9 14 17 20 22 25 29 31 33 35
16 6 3 8 6 10 13 5 5 5 5 5 5 6 7 7 8 11 10 13 11 10 13 11 13 19 19 22 17 14 17 20 26 30 32 34 34 33
14 1 6 9 11 12 7 7 7 6 4 4 4 4 4 4 5 5 4 5 4 4 4 7 3 5 8 5 17 16 22 34 33 35 37 34 33 34
4 4 9 5 9 9 10 9 8 6 3 3 3 2 2 5 4 3 2 2 4 3 3 2 4 3 4 4 7 12 17 22 26 24 27 31 33 34
Wind_Direction
289 294 295 296 291 296 298 296 298 296 299 297 288 290 291 291 287 284 285 283 280 277 272 269 269 266 256 245 240 235 233 246 251 255 255 255 250 256
297 296 296 296 294 296 298 296 302 300 300 296 296 297 294 291 286 288 287 283 280 278 272 268 266 264 261 257 243 236 231 231 232 237 247 248 250 251
298 296 298 298 296 300 304 304 303 301 300 301 300 301 295 293 288 288 286 285 283 280 277 272 284 261 259 256 247 238 242 227 227 229 230 239 246 235
297 298 296 300 306 305 303 303 303 304 303 306 304 301 298 296 293 289 286 285 283 283 278 272 264 257 254 254 251 238 234 233 233 227 226 228 229 241
298 301 304 305 307 303 304 305 305 309 307 305 304 303 302 300 293 291 290 291 290 290 286 281 281 253 240 248 248 240 232 231 228 223 226 225 224 226
304 306 304 306 303 307 307 307 310 309 307 304 305 305 304 298 297 298 298 295 294 290 286 284 282 276 270 235 242 243 235 232 227 226 222 225 220 219
309 302 305 306 308 307 311 312 310 310 307 306 306 305 302 300 302 304 302 299 296 289 285 285 279 269 263 229 236 238 234 232 229 224 228 222 219 218
307 308 310 309 308 313 313 310 313 311 308 308 306 305 301 306 308 307 306 306 302 287 288 289 278 267 260 225 231 235 232 231 230 228 225 228 223 219
309 310 309 310 312 311 311 314 314 311 311 309 307 305 310 310 313 313 312 310 310 306 284 295 274 272 266 249 227 231 233 232 232 229 228 226 227 226
311 310 311 312 312 312 313 314 312 313 312 310 308 310 315 312 315 314 317 314 305 294 307 303 275 259 255 222 227 229 231 232 234 236 235 233 228 226
314 312 313 312 312 313 314 314 316 314 313 313 310 315 316 315 313 316 316 313 297 282 286 308 312 346 220 225 229 232 233 234 226 236 235 232 225 227
313 315 313 314 313 315 315 316 316 317 313 313 315 317 321 318 318 321 325 319 318 311 277 261 241 227 226 227 229 232 227 227 228 234 217 223 222 219
315 314 314 313 314 315 317 317 319 318 317 316 319 322 325 324 326 327 329 331 332 324 290 258 246 242 237 234 231 232 232 230 229 216 215 216 217 214
315 316 314 314 315 317 317 319 316 321 321 323 324 328 329 331 333 334 334 333 333 316 295 274 247 237 232 230 228 229 225 222 171 214 213 213 214 212
316 316 315 316 317 317 321 319 325 320 326 325 328 332 334 337 336 343 348 352 359 2 350 309 257 248 225 227 188 179 156 193 200 213 211 210 212 206
316 315 315 315 317 322 323 332 321 326 330 331 332 342 349 360 6 12 12 20 23 28 32 46 42 37 12 18 194 165 180 190 188 209 209 208 209 205
315 315 316 316 322 328 325 324 329 329 336 344 349 360 3 17 33 40 48 57 65 61 53 48 53 76 127 181 205 172 176 182 182 172 204 203 204 203
318 319 317 323 329 320 326 351 14 20 352 352 358 0 14 30 34 40 51 50 55 54 50 51 57 77 110 129 138 153 163 174 174 167 172 197 197 199
322 321 326 332 319 328 355 22 2 348 2 21 27 40 51 60 48 50 51 49 50 43 44 52 66 71 79 110 136 131 140 153 164 172 175 176 190 177
327 332 341 321 330 37 42 7 351 350 23 38 57 72 66 63 60 57 58 49 53 39 52 51 82 93 92 98 123 121 129 142 152 160 172 172 187 190
335 355 327 331 70 66 69 11 23 47 46 44 44 49 48 57 66 79 71 56 60 77 63 38 88 104 100 101 112 139 147 146 148 155 163 161 170 192
344 354 343 105 100 93 83 80 71 57 50 48 11 38 38 32 30 50 75 65 50 74 81 92 128 115 127 134 131 132 128 139 145 146 157 179 193 198
101 19 117 47 93 81 61 55 49 58 49 2 349 334 299 311 316 314 301 240 197 208 263 197 165 157 158 164 177 176 166 169 172 180 186 184 191 199